Погода в Успенке

Украина / Сумская область     51°07′25″N   33°43′51″E
темп.,
°C
ветер,
м/с
пор.,
м/с
влажн.,
%
обл.,
%
осадки,
мм/ч
давл.,
гПа
погр.,
м
8 марта, пн
пн823:00−1з71494100 0.1 1008822
02:00−1зюз71296100 0.6 1007742
05:00−1з61193100 0.8 1007627
08:00−2сз5893100 1.7 1007663
11:00−1з6884100 0.3 1009975
14:00−1зсз687984 0.5 10081083
17:00−3з49870 0.1 1009249
20:00−6з369014 0.1 1011110
9 марта, вт
вт923:00−7зсз349232 0.0 101285
02:00−7сз499540 0.1 1013315
05:00−11сз499518 0.0 1015215
08:00−10сз589440 0.0 1017281
11:00−7ссз578991 0.0 1019551
14:00−6ссз578395 0.1 1020800
17:00−8сз368785 0.0 1021151
20:00−10сз339043 0.0 102449
10 марта, ср
ср1023:00−11сз239154 0.0 102554
02:00−12сз239629 0.0 102630
05:00−13сз22956 0.0 102722
08:00−11зсз119122 0.0 102765
11:00−7з228061 0.0 1027327
14:00−5з237539 0.0 1026509
17:00−7зюз23860 0.0 102523
20:00−9з23880 0.0 102723
11 марта, чт
чт1123:00−9зсз338859 0.0 102852
02:00−9ссв359675 0.1 1029154
05:00−13всв479590 0.0 1030209
08:00−13всв469491 0.1 1031212
11:00−9в359173 0.0 1032336
14:00−6вюв348486 0.1 1031588
17:00−7вюв2389100 0.0 103097
20:00−9юв468681 0.0 1030105
12 марта, пт
пт1223:00−9ююв498616 0.0 1030201
02:00−8ююв6137954 0.0 1028299
05:00−7ююв7147599 0.0 1026415
08:00−5ююв91674100 0.0 1024609
11:00−3ю111769100 0.0 10231029
14:00−2ю111782100 0.2 10201194
17:00−2ю111894100 0.9 10191089
20:00−2ю101795100 1.9 1018897